Location: Castelnau
(43.6639°N, 0.8431°W)
Time: 21:16:10
(UTC+00:00)

COSMOS 2406 - Pass Details

Date: 13 January 2026
Orbit: 843 x 861 km, 71.0° (Epoch: 10 February)

Event Time Altitude Azimuth Distance (km) Brightness Sun altitude
Rises 06:56:09 0° 337° (NNW) 3,432 5.9 -7.1°
Reaches altitude 10° 06:58:39 10° 341° (NNW) 2,495 5.3 -6.7°
Maximum altitude 07:04:20 60° 62° (ENE) 979 3.8 -5.8°
Drops below altitude 10° 07:09:59 10° 142° (SE) 2,489 6.9 -4.8°
Sets 07:12:28 0° 146° (SE) 3,423 7.6 -4.4°
